Showing default

HG-02, 60327

Orbit data source: Space-Track

HG-02, 60327 is a payload satellite owned by CNSA (CN) in GEO that was launched on Thu, 01 Aug 2024 UTC via a CHANG ZHENG 3B launch vehicle from the Xichang Space Center, China (XSC). Payloads include a variety of satellites, spacecraft, and rockets equipped with specific instruments for various scientific and technological missions. These include communications satellites like Starlink; space stations such as the ISS; scientific satellites like the Hubble; Earth observation satellites from companies like Planet Labs, Umbra, and HawkEye 360; GPS; miniature CubeSats for education and research; and military/defense satellites.

Not visible in the next 10 days
HG-02 details
Identifier
60327, 2024-135A
Orbit
GEO
Last TLE update21 hours ago
Origin
Flag of CNCNSA (CN / PRC)
ManufacturerCAST
MissionOperational spacecraft
Bus & MotorDFH-4?, FY-25?
Mass~4,000 kg wet, ~2,000 kg dry
Launch date (UTC)
2024-08-01 (5 months ago)
Launch vehicle
CHANG ZHENG 3B
Launch site
Xichang Space Center, China (XSC)
Object type
Payload
Rocket body
Debris
Shape & HBRUnknown
Radar Cross SectionLarge (>1 m²)

Expand to show TLE details & history

TLE from 21 hours ago
0 HG-02
1 60327U 24135A   25014.42362907 -.00000174  00000-0  00000-0 0  9991
2 60327   0.0295 140.2869 0003549 114.9818 164.4771  1.00271452  2294
Epoch: 2025-01-14T10:10Z
Definitive object data (Epoch: 2025-01-14T10:10:01.551Z)
Latitude-0.01508°
Longitude153.14804°
Altitude35,800.599 km
Speed3.074 km/s
True Right ascension03h 59m 08s
True Declination0° 00' 54"
Sunlit
Object was in daylight at TLE epoch
Visualization TLE readout
Latitude-0.03076°
Longitude105.05838°
Altitude35,792.816 km
Speed3.074 km/s
Apparent Right ascension00h 21m 25s
Apparent Declination-5° 23' 04"
Sunlit
Object is in daylight
Visualization observer readout
Local Sidereal Time07:33:36
Azimuth277.58° WNW
Elevation-17.266°
Doppler factor1
Orbital elements
Apogee altitude35,802.723 km
Perigee altitude35,772.794 km
Semi-major axis42,165.896 km
Eccentricity0.0003549
Inclination0.0295°
RAAN140.2869°
Arg. of periapsis114.9818°
True anomaly164.48798°
Mean anomaly164.4771°
Eccentric anomaly164.48254°
Mean motion0.25067 °/min
BSTARUnknown
Orbital period1436.16 mins
Loading historical data...
60327 neighbors
Authenticating...
Loading maneuver chart data...
Loading historical data...
Loading historical data...
Loading historical data...
Loading historical data...
Loading historical data...
Loading historical data...
Loading historical data...
Other satellites on launch #135 in the year 2024 (2024-08-01 UTC)

HG-02 Visibility forecast

Observer location: undefined°, undefined

HG-02 is not visible in the next 10 days
Span
Click to sort rows by Start time (UTC) header in descending order
Start Az.
Max El. time (UTC)
Max El. Az.
Max El.
End time (UTC)
End Az.
|